When you browse on this site, cookies collect data to enhance your experience and personalize the content and advertising you see.
Visit our Privacy Policy to learn more. By continuing to use the site, you agree to this use of cookies and data.
  • In Hungary
  • List of Countries
  • For 7 days
  • Water Temperature
  • Weather Map
  • News
  • Weather Widgets
  • user-avatar
    Login

    Hourly Weather Maseru

    Today, 12 December, Thursday

    Time Temperature Precipitation Wind Pressure Humidity
    00:00 +15°C° 0 mm 1 mps 634 mmHg 52%
    01:00 +14°C° 0 mm 0 mps 634 mmHg 54%
    02:00 +14°C° 0 mm 1 mps 634 mmHg 54%
    03:00 +14°C° 0 mm 1 mps 634 mmHg 57%
    04:00 +14°C° 0 mm 1 mps 634 mmHg 60%
    05:00 +13°C° 0 mm 1 mps 634 mmHg 63%
    06:00 +16°C° 0 mm 1 mps 635 mmHg 56%
    07:00 +19°C° 0 mm 1 mps 636 mmHg 49%
    08:00 +22°C° 0 mm 1 mps 637 mmHg 45%
    09:00 +23°C° 0 mm 1 mps 637 mmHg 40%
    10:00 +25°C° 0 mm 2 mps 637 mmHg 36%
    11:00 +26°C° 0 mm 2 mps 637 mmHg 31%
    12:00 +26°C° 0 mm 3 mps 637 mmHg 31%
    13:00 +27°C° 0 mm 3 mps 637 mmHg 30%
    14:00 +27°C° 0 mm 4 mps 636 mmHg 29%
    15:00 +26°C° 0 mm 4 mps 636 mmHg 31%
    16:00 +26°C° 0 mm 3 mps 636 mmHg 32%
    17:00 +26°C° 0 mm 3 mps 636 mmHg 33%
    18:00 +24°C° 0 mm 3 mps 636 mmHg 37%
    19:00 +23°C° 0 mm 2 mps 636 mmHg 41%
    20:00 +21°C° 0 mm 2 mps 636 mmHg 44%
    21:00 +20°C° 0 mm 2 mps 636 mmHg 46%
    22:00 +19°C° 0 mm 2 mps 636 mmHg 47%
    23:00 +19°C° 0 mm 1 mps 636 mmHg 49%

    Tomorrow, 13 December, Friday

    Time Temperature Precipitation Wind Pressure Humidity
    00:00 +18°C° 0 mm 2 mps 636 mmHg 54%
    01:00 +17°C° 0 mm 2 mps 635 mmHg 59%
    02:00 +16°C° 0 mm 2 mps 635 mmHg 64%
    03:00 +15°C° 0 mm 2 mps 635 mmHg 69%
    04:00 +15°C° 0 mm 2 mps 635 mmHg 74%
    05:00 +14°C° 0 mm 1 mps 635 mmHg 79%
    06:00 +16°C° 0 mm 3 mps 635 mmHg 70%
    07:00 +19°C° 0 mm 4 mps 636 mmHg 62%
    08:00 +21°C° 0 mm 5 mps 637 mmHg 54%
    09:00 +23°C° 0 mm 6 mps 637 mmHg 47%
    10:00 +26°C° 0 mm 7 mps 637 mmHg 41%
    11:00 +28°C° 0 mm 7 mps 638 mmHg 35%
    12:00 +28°C° 0 mm 7 mps 637 mmHg 32%
    13:00 +28°C° 0 mm 6 mps 637 mmHg 29%
    14:00 +29°C° 0 mm 6 mps 636 mmHg 25%
    15:00 +29°C° 0 mm 5 mps 636 mmHg 23%
    16:00 +30°C° 0 mm 5 mps 636 mmHg 20%
    17:00 +30°C° 0 mm 5 mps 636 mmHg 18%
    18:00 +28°C° 0 mm 4 mps 636 mmHg 21%
    19:00 +26°C° 0 mm 4 mps 635 mmHg 24%
    20:00 +23°C° 0 mm 4 mps 635 mmHg 27%
    21:00 +22°C° 0 mm 4 mps 635 mmHg 36%
    22:00 +21°C° 0 mm 4 mps 635 mmHg 46%
    23:00 +20°C° 0 mm 5 mps 635 mmHg 56%

    Day after tomorrow, 14 December, Saturday

    Time Temperature Precipitation Wind Pressure Humidity
    00:00 +19°C° 0 mm 4 mps 635 mmHg 62%
    01:00 +18°C° 0 mm 4 mps 634 mmHg 68%
    02:00 +17°C° 0 mm 4 mps 634 mmHg 74%
    03:00 +17°C° 0 mm 3 mps 634 mmHg 77%
    04:00 +16°C° 0 mm 3 mps 634 mmHg 80%
    05:00 +16°C° 0 mm 3 mps 634 mmHg 83%
    06:00 +16°C° 0 mm 5 mps 634 mmHg 76%
    07:00 +19°C° 0 mm 6 mps 635 mmHg 69%
    08:00 +21°C° 0 mm 8 mps 636 mmHg 62%
    09:00 +23°C° 0 mm 8 mps 636 mmHg 52%
    10:00 +27°C° 0 mm 8 mps 637 mmHg 42%
    11:00 +29°C° 0 mm 8 mps 637 mmHg 32%
    12:00 +31°C° 0 mm 9 mps 637 mmHg 28%
    13:00 +32°C° 0 mm 9 mps 637 mmHg 23%
    14:00 +34°C° 0 mm 9 mps 636 mmHg 18%
    15:00 +34°C° 0 mm 9 mps 636 mmHg 17%
    16:00 +33°C° 0 mm 8 mps 635 mmHg 16%
    17:00 +33°C° 0 mm 8 mps 635 mmHg 14%
    18:00 +30°C° 0 mm 6 mps 635 mmHg 18%
    19:00 +27°C° 0 mm 5 mps 634 mmHg 21%
    20:00 +24°C° 0 mm 3 mps 634 mmHg 24%
    21:00 +22°C° 0 mm 3 mps 634 mmHg 26%
    22:00 +21°C° 0 mm 2 mps 634 mmHg 28%
    23:00 +20°C° 0 mm 1 mps 634 mmHg 31%

    15 December, Sunday

    Time Temperature Precipitation Wind Pressure Humidity
    00:00 +19°C° 0 mm 1 mps 633 mmHg 33%
    01:00 +18°C° 0 mm 1 mps 633 mmHg 34%
    02:00 +16°C° 0 mm 1 mps 632 mmHg 36%
    03:00 +16°C° 0 mm 1 mps 632 mmHg 38%
    04:00 +15°C° 0 mm 1 mps 632 mmHg 40%
    05:00 +14°C° 0 mm 1 mps 631 mmHg 42%
    06:00 +17°C° 0 mm 2 mps 633 mmHg 37%
    07:00 +20°C° 0 mm 4 mps 634 mmHg 32%
    08:00 +23°C° 0 mm 5 mps 635 mmHg 27%
    09:00 +24°C° 0 mm 7 mps 636 mmHg 25%
    10:00 +27°C° 0 mm 8 mps 636 mmHg 23%
    11:00 +28°C° 0 mm 10 mps 636 mmHg 21%
    12:00 +28°C° 0 mm 10 mps 636 mmHg 17%
    13:00 +29°C° 0 mm 10 mps 636 mmHg 13%
    14:00 +29°C° 0 mm 10 mps 636 mmHg 10%
    15:00 +28°C° 0 mm 9 mps 636 mmHg 10%
    16:00 +27°C° 0 mm 9 mps 635 mmHg 11%
    17:00 +27°C° 0 mm 8 mps 635 mmHg 12%
    18:00 +23°C° 0 mm 6 mps 635 mmHg 15%
    19:00 +20°C° 0 mm 5 mps 635 mmHg 19%
    20:00 +18°C° 0 mm 3 mps 634 mmHg 22%
    21:00 +17°C° 0 mm 2 mps 635 mmHg 24%
    22:00 +16°C° 0 mm 2 mps 635 mmHg 25%
    23:00 +14°C° 0 mm 1 mps 635 mmHg 27%

    16 December, Monday

    Time Temperature Precipitation Wind Pressure Humidity
    00:00 +14°C° 0 mm 1 mps 634 mmHg 28%
    01:00 +13°C° 0 mm 1 mps 634 mmHg 29%
    02:00 +12°C° 0 mm 1 mps 633 mmHg 30%
    03:00 +12°C° 0 mm 1 mps 634 mmHg 31%
    04:00 +11°C° 0 mm 1 mps 634 mmHg 32%
    05:00 +11°C° 0 mm 1 mps 634 mmHg 34%
    06:00 +14°C° 0 mm 1 mps 635 mmHg 29%
    07:00 +18°C° 0 mm 1 mps 636 mmHg 25%
    08:00 +19°C° 0 mm 0 mps 637 mmHg 20%
    09:00 +23°C° 0 mm 1 mps 637 mmHg 17%
    10:00 +25°C° 0 mm 1 mps 638 mmHg 14%
    11:00 +27°C° 0 mm 2 mps 638 mmHg 10%
    12:00 +28°C° 0 mm 2 mps 638 mmHg 10%
    13:00 +29°C° 0 mm 3 mps 637 mmHg 9%
    14:00 +30°C° 0 mm 3 mps 637 mmHg 8%
    15:00 +30°C° 0 mm 3 mps 637 mmHg 9%
    16:00 +30°C° 0 mm 4 mps 636 mmHg 9%
    17:00 +32°C° 0 mm 4 mps 636 mmHg 9%
    18:00 +27°C° 0 mm 3 mps 635 mmHg 12%
    19:00 +24°C° 0 mm 2 mps 635 mmHg 15%
    20:00 +20°C° 0 mm 2 mps 634 mmHg 18%
    21:00 +20°C° 0 mm 1 mps 634 mmHg 20%
    22:00 +19°C° 0 mm 1 mps 634 mmHg 21%
    23:00 +16°C° 0 mm 0 mps 633 mmHg 23%

    17 December, Tuesday

    Time Temperature Precipitation Wind Pressure Humidity
    00:00 +16°C° 0 mm 1 mps 633 mmHg 25%
    01:00 +16°C° 0 mm 2 mps 633 mmHg 27%
    02:00 +16°C° 0 mm 2 mps 633 mmHg 29%
    03:00 +14°C° 0 mm 3 mps 633 mmHg 45%
    04:00 +13°C° 0 mm 3 mps 633 mmHg 62%
    05:00 +13°C° 0 mm 3 mps 633 mmHg 79%
    06:00 +15°C° 0 mm 4 mps 634 mmHg 76%
    07:00 +17°C° 0 mm 5 mps 634 mmHg 73%
    08:00 +20°C° 0 mm 6 mps 635 mmHg 71%
    09:00 +22°C° 0 mm 6 mps 635 mmHg 61%
    10:00 +26°C° 0 mm 6 mps 636 mmHg 50%
    11:00 +28°C° 0 mm 5 mps 636 mmHg 40%
    12:00 +30°C° 0 mm 5 mps 636 mmHg 33%
    13:00 +33°C° 0 mm 5 mps 636 mmHg 26%
    14:00 +34°C° 0 mm 6 mps 636 mmHg 19%
    15:00 +34°C° 0 mm 5 mps 635 mmHg 19%
    16:00 +34°C° 0 mm 5 mps 635 mmHg 19%
    17:00 +33°C° 0 mm 5 mps 634 mmHg 18%
    18:00 +30°C° 0.2 mm 5 mps 634 mmHg 25%
    19:00 +27°C° 0.2 mm 4 mps 634 mmHg 32%
    20:00 +25°C° 0.2 mm 4 mps 634 mmHg 39%
    21:00 +22°C° 0.5 mm 4 mps 634 mmHg 50%
    22:00 +20°C° 0.5 mm 3 mps 634 mmHg 61%
    23:00 +19°C° 0.5 mm 3 mps 634 mmHg 73%
    Show more